contact:dominique.lefevre@mio.osupytheas.fr, maurice.libes@osupytheas.fr, didier.mallarino@osupytheas.fr
Project:EMSO http://www.emso-fr.org/EMSO-France
Depth: 2436.0 m
Title:EMSO Ligure Ouest : Data MII capteur CSTAR
DateTime,Latitude,Longitude,Instrument_Serial,Reference_Counts,Signal_Counts,Corrected_Signal_raw_counts,Calculated_Beam_c_inverse_meters,Internal_thermistor_counts
DateTime,Latitude,Longitude,Instrument_Serial,Reference_Counts,Signal_Counts,Corrected_Signal_raw_counts,Calculated_Beam_c_inverse_meters,Internal_thermistor_counts
2023-03-11T00:00:42,42.805,6.029,CST-1368DR,4357,4720,11506,01.222,551
2023-03-11T00:03:43,42.805,6.029,CST-1368DR,4357,4723,11514,01.219,551
2023-03-11T00:06:45,42.805,6.029,CST-1368DR,4357,4721,11511,01.220,551
2023-03-11T00:09:47,42.805,6.029,CST-1368DR,4357,4724,11517,01.218,551
2023-03-11T00:12:48,42.805,6.029,CST-1368DR,4357,4720,11506,01.222,551
2023-03-11T00:15:50,42.805,6.029,CST-1368DR,4357,4723,11514,01.219,551
2023-03-11T00:18:51,42.805,6.029,CST-1368DR,4357,4725,11520,01.217,551
2023-03-11T00:21:53,42.805,6.029,CST-1368DR,4357,4722,11511,01.220,551
2023-03-11T00:24:54,42.805,6.029,CST-1368DR,4357,4717,11500,01.224,551
2023-03-11T00:27:56,42.805,6.029,CST-1368DR,4357,4723,11515,01.219,551
2023-03-11T00:30:58,42.805,6.029,CST-1368DR,4357,4726,11521,01.216,551
2023-03-11T00:33:59,42.805,6.029,CST-1368DR,4357,4721,11511,01.220,551
2023-03-11T00:37:01,42.805,6.029,CST-1368DR,4357,4722,11511,01.220,551
2023-03-11T00:40:02,42.805,6.029,CST-1368DR,4357,4716,11497,01.225,551
2023-03-11T00:43:04,42.805,6.029,CST-1368DR,4357,4720,11508,01.221,551
2023-03-11T00:46:05,42.805,6.029,CST-1368DR,4357,4720,11507,01.221,551
2023-03-11T00:49:07,42.805,6.029,CST-1368DR,4357,4718,11502,01.223,551
2023-03-11T00:52:09,42.805,6.029,CST-1368DR,4357,4729,11529,01.214,551
2023-03-11T00:55:10,42.805,6.029,CST-1368DR,4357,4727,11523,01.216,551
2023-03-11T00:58:12,42.805,6.029,CST-1368DR,4357,4723,11515,01.219,551
2023-03-11T01:01:13,42.805,6.029,CST-1368DR,4357,4723,11514,01.219,551
2023-03-11T01:04:15,42.805,6.029,CST-1368DR,4357,4720,11508,01.221,551
2023-03-11T01:07:16,42.805,6.029,CST-1368DR,4357,4724,11517,01.218,551
2023-03-11T01:10:18,42.805,6.029,CST-1368DR,4357,4722,11513,01.219,551
2023-03-11T01:13:20,42.805,6.029,CST-1368DR,4357,4720,11507,01.221,551
2023-03-11T01:16:21,42.805,6.029,CST-1368DR,4357,4722,11512,01.220,551
2023-03-11T01:19:23,42.805,6.029,CST-1368DR,4357,4723,11515,01.219,551
2023-03-11T01:22:24,42.805,6.029,CST-1368DR,4357,4717,11501,01.223,551
2023-03-11T01:25:26,42.805,6.029,CST-1368DR,4357,4722,11513,01.219,551
2023-03-11T01:28:28,42.805,6.029,CST-1368DR,4357,4720,11508,01.221,551
2023-03-11T01:31:29,42.805,6.029,CST-1368DR,4357,4725,11519,01.217,551
2023-03-11T01:34:31,42.805,6.029,CST-1368DR,4357,4723,11514,01.219,551
2023-03-11T01:37:32,42.805,6.029,CST-1368DR,4357,4718,11503,01.223,551
2023-03-11T01:40:34,42.805,6.029,CST-1368DR,4357,4717,11499,01.224,551
2023-03-11T01:43:35,42.805,6.029,CST-1368DR,4357,4727,11524,01.215,551
2023-03-11T01:46:37,42.805,6.029,CST-1368DR,4357,4719,11506,01.222,551
2023-03-11T01:49:39,42.805,6.029,CST-1368DR,4357,4720,11507,01.221,551
2023-03-11T01:52:40,42.805,6.029,CST-1368DR,4357,4721,11509,01.221,551
2023-03-11T01:55:42,42.805,6.029,CST-1368DR,4357,4721,11509,01.221,551
2023-03-11T01:58:43,42.805,6.029,CST-1368DR,4357,4726,11523,01.216,551
2023-03-11T02:01:45,42.805,6.029,CST-1368DR,4357,4722,11511,01.220,551
2023-03-11T02:04:46,42.805,6.029,CST-1368DR,4357,4722,11512,01.220,551
2023-03-11T02:07:48,42.805,6.029,CST-1368DR,4357,4724,11516,01.218,551
2023-03-11T02:10:50,42.805,6.029,CST-1368DR,4357,4723,11515,01.219,551
2023-03-11T02:13:51,42.805,6.029,CST-1368DR,4357,4722,11513,01.219,551
2023-03-11T02:16:53,42.805,6.029,CST-1368DR,4357,4720,11508,01.221,551
2023-03-11T02:19:54,42.805,6.029,CST-1368DR,4357,4719,11505,01.222,551
2023-03-11T02:22:56,42.805,6.029,CST-1368DR,4357,4722,11513,01.219,551
2023-03-11T02:25:58,42.805,6.029,CST-1368DR,4357,4715,11495,01.226,551
2023-03-11T02:28:59,42.805,6.029,CST-1368DR,4357,4725,11519,01.217,551
2023-03-11T02:32:01,42.805,6.029,CST-1368DR,4357,4705,11471,01.234,551
2023-03-11T02:35:02,42.805,6.029,CST-1368DR,4357,4725,11519,01.217,551
2023-03-11T02:38:04,42.805,6.029,CST-1368DR,4357,4730,11532,01.213,551
2023-03-11T02:41:05,42.805,6.029,CST-1368DR,4357,4725,11519,01.217,551
2023-03-11T02:44:07,42.805,6.029,CST-1368DR,4357,4723,11515,01.219,551
2023-03-11T02:47:09,42.805,6.029,CST-1368DR,4357,4725,11519,01.217,551
2023-03-11T02:50:10,42.805,6.029,CST-1368DR,4357,4726,11522,01.216,551
2023-03-11T02:53:12,42.805,6.029,CST-1368DR,4357,4726,11521,01.216,551
2023-03-11T02:56:13,42.805,6.029,CST-1368DR,4357,4727,11525,01.215,551
2023-03-11T02:59:15,42.805,6.029,CST-1368DR,4357,4698,11453,01.240,551
2023-03-11T03:02:16,42.805,6.029,CST-1368DR,4357,4730,11533,01.212,551
2023-03-11T03:05:18,42.805,6.029,CST-1368DR,4357,4720,11508,01.221,551
2023-03-11T03:08:20,42.805,6.029,CST-1368DR,4357,4729,11529,01.214,551
2023-03-11T03:11:21,42.805,6.029,CST-1368DR,4357,4730,11533,01.212,551
2023-03-11T03:14:23,42.805,6.029,CST-1368DR,4357,4728,11528,01.214,551
2023-03-11T03:17:24,42.805,6.029,CST-1368DR,4357,4719,11506,01.222,551
2023-03-11T03:20:26,42.805,6.029,CST-1368DR,4357,4726,11523,01.216,551
2023-03-11T03:23:27,42.805,6.029,CST-1368DR,4357,4732,11537,01.211,551
2023-03-11T03:26:29,42.805,6.029,CST-1368DR,4357,4728,11526,01.215,551
2023-03-11T03:29:31,42.805,6.029,CST-1368DR,4357,4730,11532,01.213,551
2023-03-11T03:32:32,42.805,6.029,CST-1368DR,4357,4726,11522,01.216,551
2023-03-11T03:35:34,42.805,6.029,CST-1368DR,4357,4728,11526,01.215,551
2023-03-11T03:38:35,42.805,6.029,CST-1368DR,4357,4726,11523,01.216,551
2023-03-11T03:41:37,42.805,6.029,CST-1368DR,4357,4728,11527,01.214,551
2023-03-11T03:44:39,42.805,6.029,CST-1368DR,4357,4727,11525,01.215,551
2023-03-11T03:47:40,42.805,6.029,CST-1368DR,4357,4726,11521,01.216,551
2023-03-11T03:50:42,42.805,6.029,CST-1368DR,4357,4721,11509,01.221,551
2023-03-11T03:53:43,42.805,6.029,CST-1368DR,4357,4726,11523,01.216,551
2023-03-11T03:56:45,42.805,6.029,CST-1368DR,4357,4733,11540,01.210,551
2023-03-11T03:59:46,42.805,6.029,CST-1368DR,4357,4729,11528,01.214,551
2023-03-11T04:02:48,42.805,6.029,CST-1368DR,4357,4729,11529,01.214,551
2023-03-11T04:05:50,42.805,6.029,CST-1368DR,4357,4728,11528,01.214,551
2023-03-11T04:08:51,42.805,6.029,CST-1368DR,4357,4724,11516,01.218,551
2023-03-11T04:11:53,42.805,6.029,CST-1368DR,4357,4727,11525,01.215,551
2023-03-11T04:14:54,42.805,6.029,CST-1368DR,4357,4723,11514,01.219,551
2023-03-11T04:17:56,42.805,6.029,CST-1368DR,4357,4722,11512,01.220,551
2023-03-11T04:20:57,42.805,6.029,CST-1368DR,4357,4717,11499,01.224,551
2023-03-11T04:23:59,42.805,6.029,CST-1368DR,4357,4718,11502,01.223,551
2023-03-11T04:27:01,42.805,6.029,CST-1368DR,4357,4729,11529,01.214,551
2023-03-11T04:30:02,42.805,6.029,CST-1368DR,4357,4729,11530,01.213,551
2023-03-11T04:33:04,42.805,6.029,CST-1368DR,4357,4729,11528,01.214,551
2023-03-11T04:36:05,42.805,6.029,CST-1368DR,4357,4725,11520,01.217,551
2023-03-11T04:39:07,42.805,6.029,CST-1368DR,4357,4727,11523,01.216,551
2023-03-11T04:42:09,42.805,6.029,CST-1368DR,4357,4726,11522,01.216,551
2023-03-11T04:45:10,42.805,6.029,CST-1368DR,4357,4722,11512,01.220,551
2023-03-11T04:48:12,42.805,6.029,CST-1368DR,4357,4729,11528,01.214,551
2023-03-11T04:51:13,42.805,6.029,CST-1368DR,4357,4727,11525,01.215,551
2023-03-11T04:54:15,42.805,6.029,CST-1368DR,4357,4711,11486,01.229,551
2023-03-11T04:57:16,42.805,6.029,CST-1368DR,4357,4705,11470,01.234,551
2023-03-11T05:00:18,42.805,6.029,CST-1368DR,4357,4707,11476,01.232,551
2023-03-11T05:03:20,42.805,6.029,CST-1368DR,4357,4709,11480,01.231,551
2023-03-11T05:06:21,42.805,6.029,CST-1368DR,4357,4710,11483,01.230,551
2023-03-11T05:09:23,42.805,6.029,CST-1368DR,4357,4700,11459,01.238,551
2023-03-11T05:12:24,42.805,6.029,CST-1368DR,4357,4706,11472,01.234,551
2023-03-11T05:15:26,42.805,6.029,CST-1368DR,4357,4709,11480,01.231,551
2023-03-11T05:18:27,42.805,6.029,CST-1368DR,4357,4709,11481,01.230,551
2023-03-11T05:21:29,42.805,6.029,CST-1368DR,4357,4699,11457,01.239,551
2023-03-11T05:24:31,42.805,6.029,CST-1368DR,4357,4710,11484,01.229,551
2023-03-11T05:27:32,42.805,6.029,CST-1368DR,4357,4710,11482,01.230,551
2023-03-11T05:30:34,42.805,6.029,CST-1368DR,4357,4705,11471,01.234,551
2023-03-11T05:33:35,42.805,6.029,CST-1368DR,4357,4705,11472,01.234,551
2023-03-11T05:36:37,42.805,6.029,CST-1368DR,4357,4707,11476,01.232,551
2023-03-11T05:39:38,42.805,6.029,CST-1368DR,4357,4707,11476,01.232,551
2023-03-11T05:42:40,42.805,6.029,CST-1368DR,4357,4708,11478,01.231,551
2023-03-11T05:45:42,42.805,6.029,CST-1368DR,4357,4702,11464,01.236,551
2023-03-11T05:48:43,42.805,6.029,CST-1368DR,4357,4706,11473,01.233,551
2023-03-11T05:51:45,42.805,6.029,CST-1368DR,4357,4702,11464,01.236,551
2023-03-11T05:54:46,42.805,6.029,CST-1368DR,4357,4705,11471,01.234,551
2023-03-11T05:57:48,42.805,6.029,CST-1368DR,4357,4700,11459,01.238,551
2023-03-11T06:00:50,42.805,6.029,CST-1368DR,4357,4703,11466,01.236,551
2023-03-11T06:03:51,42.805,6.029,CST-1368DR,4357,4709,11480,01.231,551
2023-03-11T06:06:53,42.805,6.029,CST-1368DR,4357,4706,11473,01.233,551
2023-03-11T06:09:54,42.805,6.029,CST-1368DR,4357,4704,11468,01.235,551
2023-03-11T06:12:56,42.805,6.029,CST-1368DR,4357,4700,11458,01.238,551
2023-03-11T06:15:57,42.805,6.029,CST-1368DR,4357,4698,11455,01.239,551
2023-03-11T06:18:59,42.805,6.029,CST-1368DR,4356,4687,11430,01.248,551
2023-03-11T06:22:01,42.805,6.029,CST-1368DR,4357,4687,11426,01.250,551
2023-03-11T06:25:02,42.805,6.029,CST-1368DR,4357,4696,11449,01.242,551
2023-03-11T06:28:04,42.805,6.029,CST-1368DR,4357,4698,11454,01.240,551
2023-03-11T06:31:05,42.805,6.029,CST-1368DR,4357,4710,11483,01.230,551
2023-03-11T06:34:07,42.805,6.029,CST-1368DR,4357,4706,11472,01.234,551
2023-03-11T06:37:08,42.805,6.029,CST-1368DR,4357,4705,11470,01.234,551
2023-03-11T06:40:10,42.805,6.029,CST-1368DR,4357,4702,11464,01.236,551
2023-03-11T06:43:12,42.805,6.029,CST-1368DR,4357,4703,11466,01.236,551
2023-03-11T06:46:13,42.805,6.029,CST-1368DR,4357,4701,11460,01.238,551
2023-03-11T06:49:15,42.805,6.029,CST-1368DR,4357,4704,11469,01.235,551
2023-03-11T06:52:16,42.805,6.029,CST-1368DR,4357,4700,11458,01.238,551
2023-03-11T06:55:18,42.805,6.029,CST-1368DR,4357,4697,11451,01.241,551
2023-03-11T06:58:20,42.805,6.029,CST-1368DR,4357,4705,11470,01.234,551
2023-03-11T07:01:21,42.805,6.029,CST-1368DR,4357,4703,11465,01.236,551
2023-03-11T07:04:23,42.805,6.029,CST-1368DR,4356,4697,11453,01.240,551
2023-03-11T07:07:24,42.805,6.029,CST-1368DR,4357,4698,11454,01.240,551
2023-03-11T07:10:26,42.805,6.029,CST-1368DR,4357,4700,11459,01.238,551
2023-03-11T07:13:27,42.805,6.029,CST-1368DR,4357,4695,11447,01.242,551
2023-03-11T07:16:29,42.805,6.029,CST-1368DR,4357,4700,11459,01.238,551
2023-03-11T07:19:31,42.805,6.029,CST-1368DR,4357,4701,11461,01.237,551
2023-03-11T07:22:32,42.805,6.029,CST-1368DR,4357,4699,11456,01.239,551
2023-03-11T07:25:34,42.805,6.029,CST-1368DR,4357,4697,11451,01.241,551
2023-03-11T07:28:35,42.805,6.029,CST-1368DR,4357,4702,11464,01.236,551
2023-03-11T07:31:37,42.805,6.029,CST-1368DR,4357,4703,11466,01.236,551
2023-03-11T07:34:38,42.805,6.029,CST-1368DR,4356,4702,11465,01.236,551
2023-03-11T07:37:40,42.805,6.029,CST-1368DR,4357,4704,11467,01.235,551
2023-03-11T07:40:42,42.805,6.029,CST-1368DR,4357,4701,11460,01.238,551
2023-03-11T07:43:43,42.805,6.029,CST-1368DR,4356,4680,11413,01.254,551
2023-03-11T07:46:45,42.805,6.029,CST-1368DR,4356,4699,11459,01.238,551
2023-03-11T07:49:46,42.805,6.029,CST-1368DR,4357,4698,11454,01.240,551
2023-03-11T07:52:48,42.805,6.029,CST-1368DR,4357,4700,11458,01.238,551
2023-03-11T07:55:50,42.805,6.029,CST-1368DR,4356,4702,11466,01.236,551
2023-03-11T07:58:51,42.805,6.029,CST-1368DR,4356,4699,11458,01.238,551
2023-03-11T08:01:53,42.805,6.029,CST-1368DR,4357,4698,11454,01.240,551
2023-03-11T08:04:54,42.805,6.029,CST-1368DR,4356,4698,11457,01.239,551
2023-03-11T08:07:56,42.805,6.029,CST-1368DR,4357,4700,11459,01.238,551
2023-03-11T08:10:57,42.805,6.029,CST-1368DR,4357,4694,11445,01.243,551
2023-03-11T08:13:59,42.805,6.029,CST-1368DR,4357,4698,11455,01.239,551
2023-03-11T08:17:01,42.805,6.029,CST-1368DR,4357,4698,11453,01.240,551
2023-03-11T08:20:02,42.805,6.029,CST-1368DR,4357,4702,11464,01.236,551
2023-03-11T08:23:04,42.805,6.029,CST-1368DR,4357,4698,11453,01.240,551
2023-03-11T08:26:05,42.805,6.029,CST-1368DR,4356,4697,11454,01.240,551
2023-03-11T08:29:07,42.805,6.029,CST-1368DR,4357,4698,11453,01.240,551
2023-03-11T08:32:08,42.805,6.029,CST-1368DR,4357,4702,11463,01.237,551
2023-03-11T08:35:10,42.805,6.029,CST-1368DR,4357,4700,11459,01.238,551
2023-03-11T08:38:12,42.805,6.029,CST-1368DR,4356,4699,11458,01.238,551
2023-03-11T08:41:13,42.805,6.029,CST-1368DR,4356,4699,11459,01.238,551
2023-03-11T08:44:15,42.805,6.029,CST-1368DR,4357,4690,11435,01.246,551
2023-03-11T08:47:16,42.805,6.029,CST-1368DR,4357,4700,11458,01.238,551
2023-03-11T08:50:18,42.805,6.029,CST-1368DR,4357,4699,11456,01.239,551
2023-03-11T08:53:20,42.805,6.029,CST-1368DR,4357,4699,11455,01.239,551
2023-03-11T08:56:21,42.805,6.029,CST-1368DR,4356,4698,11456,01.239,551
2023-03-11T08:59:23,42.805,6.029,CST-1368DR,4357,4698,11455,01.239,551
2023-03-11T09:02:24,42.805,6.029,CST-1368DR,4357,4701,11460,01.238,551
2023-03-11T09:05:26,42.805,6.029,CST-1368DR,4357,4700,11459,01.238,551
2023-03-11T09:08:27,42.805,6.029,CST-1368DR,4357,4698,11455,01.239,551
2023-03-11T09:11:29,42.805,6.029,CST-1368DR,4357,4691,11437,01.246,551
2023-03-11T09:14:31,42.805,6.029,CST-1368DR,4357,4694,11445,01.243,551
2023-03-11T09:17:32,42.805,6.029,CST-1368DR,4357,4701,11460,01.238,551
2023-03-11T09:20:34,42.805,6.029,CST-1368DR,4357,4700,11458,01.238,551
2023-03-11T09:23:35,42.805,6.029,CST-1368DR,4356,4697,11453,01.240,551
2023-03-11T09:26:37,42.805,6.029,CST-1368DR,4357,4700,11458,01.238,551
2023-03-11T09:29:38,42.805,6.029,CST-1368DR,4356,4683,11419,01.252,551
2023-03-11T09:32:40,42.805,6.029,CST-1368DR,4357,4701,11460,01.238,551
2023-03-11T09:35:42,42.805,6.029,CST-1368DR,4357,4699,11455,01.239,551
2023-03-11T09:38:43,42.805,6.029,CST-1368DR,4357,4700,11459,01.238,551
2023-03-11T09:41:45,42.805,6.029,CST-1368DR,4357,4701,11460,01.238,551
2023-03-11T09:44:46,42.805,6.029,CST-1368DR,4357,4702,11464,01.236,551
2023-03-11T09:47:48,42.805,6.029,CST-1368DR,4356,4692,11441,01.244,551
2023-03-11T09:50:49,42.805,6.029,CST-1368DR,4356,4699,11459,01.238,551
2023-03-11T09:53:51,42.805,6.029,CST-1368DR,4356,4694,11447,01.242,551
2023-03-11T09:56:53,42.805,6.029,CST-1368DR,4356,4688,11433,01.247,551
2023-03-11T09:59:54,42.805,6.029,CST-1368DR,4357,4704,11469,01.235,551
2023-03-11T10:02:56,42.805,6.029,CST-1368DR,4356,4696,11451,01.241,551
2023-03-11T10:05:57,42.805,6.029,CST-1368DR,4356,4697,11453,01.240,551
2023-03-11T10:08:59,42.805,6.029,CST-1368DR,4356,4698,11455,01.239,551
2023-03-11T10:12:01,42.805,6.029,CST-1368DR,4356,4698,11455,01.239,551
2023-03-11T10:15:02,42.805,6.029,CST-1368DR,4356,4699,11458,01.238,551
2023-03-11T10:18:04,42.805,6.029,CST-1368DR,4356,4702,11466,01.236,551
2023-03-11T10:21:05,42.805,6.029,CST-1368DR,4356,4699,11458,01.238,551
2023-03-11T10:24:07,42.805,6.029,CST-1368DR,4356,4699,11459,01.238,551
2023-03-11T10:27:08,42.805,6.029,CST-1368DR,4356,4696,11452,01.241,551
2023-03-11T10:30:10,42.805,6.029,CST-1368DR,4356,4700,11461,01.237,551
2023-03-11T10:33:12,42.805,6.029,CST-1368DR,4356,4705,11474,01.233,551
2023-03-11T10:36:13,42.805,6.029,CST-1368DR,4356,4706,11475,01.233,551
2023-03-11T10:39:15,42.805,6.029,CST-1368DR,4356,4701,11464,01.236,551
2023-03-11T10:42:16,42.805,6.029,CST-1368DR,4356,4699,11459,01.238,551
2023-03-11T10:45:18,42.805,6.029,CST-1368DR,4356,4706,11477,01.232,551
2023-03-11T10:48:19,42.805,6.029,CST-1368DR,4356,4702,11465,01.236,551
2023-03-11T10:51:21,42.805,6.029,CST-1368DR,4356,4705,11472,01.234,551
2023-03-11T10:54:23,42.805,6.029,CST-1368DR,4356,4701,11463,01.237,551
2023-03-11T10:57:24,42.805,6.029,CST-1368DR,4356,4701,11463,01.237,551
2023-03-11T11:00:26,42.805,6.029,CST-1368DR,4356,4701,11464,01.236,551
2023-03-11T11:03:27,42.805,6.029,CST-1368DR,4356,4702,11467,01.235,551
2023-03-11T11:06:29,42.805,6.029,CST-1368DR,4356,4698,11457,01.239,551
2023-03-11T11:09:31,42.805,6.029,CST-1368DR,4356,4699,11459,01.238,551
2023-03-11T11:12:32,42.805,6.029,CST-1368DR,4356,4703,11468,01.235,551
2023-03-11T11:15:34,42.805,6.029,CST-1368DR,4356,4702,11465,01.236,551
2023-03-11T11:18:35,42.805,6.029,CST-1368DR,4356,4703,11468,01.235,551
2023-03-11T11:21:37,42.805,6.029,CST-1368DR,4356,4705,11473,01.233,551
2023-03-11T11:24:38,42.805,6.029,CST-1368DR,4356,4703,11468,01.235,551
2023-03-11T11:27:40,42.805,6.029,CST-1368DR,4356,4700,11461,01.237,551
2023-03-11T11:30:42,42.805,6.029,CST-1368DR,4356,4696,11452,01.241,551
2023-03-11T11:33:43,42.805,6.029,CST-1368DR,4356,4700,11461,01.237,551
2023-03-11T11:36:45,42.805,6.029,CST-1368DR,4356,4699,11458,01.238,551
2023-03-11T11:39:46,42.805,6.029,CST-1368DR,4356,4700,11460,01.238,551
2023-03-11T11:42:48,42.805,6.029,CST-1368DR,4356,4699,11459,01.238,551
2023-03-11T11:45:49,42.805,6.029,CST-1368DR,4356,4700,11461,01.237,551
2023-03-11T11:48:51,42.805,6.029,CST-1368DR,4356,4700,11460,01.238,551
2023-03-11T11:51:53,42.805,6.029,CST-1368DR,4356,4707,11477,01.232,551
2023-03-11T11:54:54,42.805,6.029,CST-1368DR,4356,4699,11458,01.238,551
2023-03-11T11:57:56,42.805,6.029,CST-1368DR,4356,4703,11469,01.235,551
2023-03-11T12:00:57,42.805,6.029,CST-1368DR,4356,4710,11486,01.229,551
2023-03-11T12:03:59,42.805,6.029,CST-1368DR,4356,4702,11466,01.236,551
2023-03-11T12:07:01,42.805,6.029,CST-1368DR,4356,4710,11484,01.229,551
2023-03-11T12:10:02,42.805,6.029,CST-1368DR,4356,4703,11468,01.235,551
2023-03-11T12:13:04,42.805,6.029,CST-1368DR,4356,4700,11462,01.237,551
2023-03-11T12:16:05,42.805,6.029,CST-1368DR,4356,4706,11475,01.233,551
2023-03-11T12:19:07,42.805,6.029,CST-1368DR,4356,4703,11469,01.235,551
2023-03-11T12:22:08,42.805,6.029,CST-1368DR,4356,4707,11478,01.231,551
2023-03-11T12:25:10,42.805,6.029,CST-1368DR,4356,4701,11464,01.236,551
2023-03-11T12:28:12,42.805,6.029,CST-1368DR,4356,4703,11469,01.235,551
2023-03-11T12:31:13,42.805,6.029,CST-1368DR,4356,4702,11466,01.236,551
2023-03-11T12:34:15,42.805,6.029,CST-1368DR,4356,4697,11453,01.240,551
2023-03-11T12:37:16,42.805,6.029,CST-1368DR,4356,4706,11475,01.233,551
2023-03-11T12:40:18,42.805,6.029,CST-1368DR,4356,4702,11467,01.235,551
2023-03-11T12:43:19,42.805,6.029,CST-1368DR,4356,4705,11472,01.234,551
2023-03-11T12:46:21,42.805,6.029,CST-1368DR,4356,4706,11475,01.233,551
2023-03-11T12:49:23,42.805,6.029,CST-1368DR,4356,4705,11472,01.234,551
2023-03-11T12:52:24,42.805,6.029,CST-1368DR,4356,4703,11468,01.235,551
2023-03-11T12:55:26,42.805,6.029,CST-1368DR,4356,4704,11470,01.234,551
2023-03-11T12:58:27,42.805,6.029,CST-1368DR,4356,4703,11469,01.235,551
2023-03-11T13:01:29,42.805,6.029,CST-1368DR,4356,4709,11483,01.230,551
2023-03-11T13:04:31,42.805,6.029,CST-1368DR,4356,4704,11470,01.234,551
2023-03-11T13:07:32,42.805,6.029,CST-1368DR,4356,4709,11482,01.230,551
2023-03-11T13:10:34,42.805,6.029,CST-1368DR,4356,4701,11463,01.237,551
2023-03-11T13:13:35,42.805,6.029,CST-1368DR,4356,4704,11470,01.234,551
2023-03-11T13:16:37,42.805,6.029,CST-1368DR,4356,4708,11481,01.230,551
2023-03-11T13:19:38,42.805,6.029,CST-1368DR,4356,4705,11472,01.234,551
2023-03-11T13:22:40,42.805,6.029,CST-1368DR,4356,4704,11470,01.234,551
2023-03-11T13:25:42,42.805,6.029,CST-1368DR,4356,4701,11464,01.236,551
2023-03-11T13:28:43,42.805,6.029,CST-1368DR,4356,4705,11472,01.234,551
2023-03-11T13:31:45,42.805,6.029,CST-1368DR,4356,4707,11477,01.232,551
2023-03-11T13:34:46,42.805,6.029,CST-1368DR,4356,4705,11472,01.234,551
2023-03-11T13:37:48,42.805,6.029,CST-1368DR,4356,4705,11472,01.234,551
2023-03-11T13:40:49,42.805,6.029,CST-1368DR,4356,4706,11476,01.232,551
2023-03-11T13:43:51,42.805,6.029,CST-1368DR,4356,4709,11483,01.230,551
2023-03-11T13:46:53,42.805,6.029,CST-1368DR,4356,4705,11472,01.234,551
2023-03-11T13:49:54,42.805,6.029,CST-1368DR,4356,4705,11472,01.234,551
2023-03-11T13:52:56,42.805,6.029,CST-1368DR,4356,4705,11474,01.233,551
2023-03-11T13:55:57,42.805,6.029,CST-1368DR,4356,4707,11479,01.231,551
2023-03-11T13:58:59,42.805,6.029,CST-1368DR,4356,4707,11477,01.232,551
2023-03-11T14:02:00,42.805,6.029,CST-1368DR,4356,4690,11437,01.246,551
2023-03-11T14:05:02,42.805,6.029,CST-1368DR,4356,4705,11474,01.233,551
2023-03-11T14:08:04,42.805,6.029,CST-1368DR,4356,4703,11469,01.235,551
2023-03-11T14:11:05,42.805,6.029,CST-1368DR,4356,4705,11473,01.233,551
2023-03-11T14:14:07,42.805,6.029,CST-1368DR,4356,4702,11466,01.236,551
2023-03-11T14:17:08,42.805,6.029,CST-1368DR,4356,4708,11480,01.231,551
2023-03-11T14:20:10,42.805,6.029,CST-1368DR,4356,4705,11472,01.234,551
2023-03-11T14:23:12,42.805,6.029,CST-1368DR,4356,4705,11474,01.233,551
2023-03-11T14:26:13,42.805,6.029,CST-1368DR,4356,4705,11473,01.233,551
2023-03-11T14:29:15,42.805,6.029,CST-1368DR,4356,4706,11477,01.232,551
2023-03-11T14:32:16,42.805,6.029,CST-1368DR,4356,4711,11487,01.228,551
2023-03-11T14:35:18,42.805,6.029,CST-1368DR,4356,4707,11479,01.231,551
2023-03-11T14:38:19,42.805,6.029,CST-1368DR,4356,4706,11477,01.232,551
2023-03-11T14:41:21,42.805,6.029,CST-1368DR,4356,4717,11503,01.223,551
2023-03-11T14:44:23,42.805,6.029,CST-1368DR,4356,4707,11478,01.231,551
2023-03-11T14:47:24,42.805,6.029,CST-1368DR,4356,4710,11486,01.229,551
2023-03-11T14:50:26,42.805,6.029,CST-1368DR,4356,4709,11482,01.230,551
2023-03-11T14:53:27,42.805,6.029,CST-1368DR,4356,4710,11484,01.229,551
2023-03-11T14:56:29,42.805,6.029,CST-1368DR,4356,4709,11483,01.230,551
2023-03-11T14:59:30,42.805,6.029,CST-1368DR,4356,4710,11486,01.229,551
2023-03-11T15:02:32,42.805,6.029,CST-1368DR,4356,4707,11478,01.231,551
2023-03-11T15:05:34,42.805,6.029,CST-1368DR,4356,4700,11461,01.237,551
2023-03-11T15:08:35,42.805,6.029,CST-1368DR,4356,4703,11469,01.235,551
2023-03-11T15:11:37,42.805,6.029,CST-1368DR,4356,4709,11483,01.230,551
2023-03-11T15:14:38,42.805,6.029,CST-1368DR,4356,4705,11472,01.234,551
2023-03-11T15:17:40,42.805,6.029,CST-1368DR,4356,4707,11478,01.231,551
2023-03-11T15:20:42,42.805,6.029,CST-1368DR,4356,4707,11478,01.231,551
2023-03-11T15:23:43,42.805,6.029,CST-1368DR,4356,4705,11473,01.233,551
2023-03-11T15:26:45,42.805,6.029,CST-1368DR,4356,4702,11467,01.235,551
2023-03-11T15:29:46,42.805,6.029,CST-1368DR,4356,4707,11478,01.231,551
2023-03-11T15:32:48,42.805,6.029,CST-1368DR,4356,4707,11479,01.231,551
2023-03-11T15:35:49,42.805,6.029,CST-1368DR,4356,4706,11475,01.233,551
2023-03-11T15:38:51,42.805,6.029,CST-1368DR,4356,4705,11474,01.233,551
2023-03-11T15:41:53,42.805,6.029,CST-1368DR,4356,4707,11477,01.232,551
2023-03-11T15:44:54,42.805,6.029,CST-1368DR,4356,4707,11478,01.231,551
2023-03-11T15:47:56,42.805,6.029,CST-1368DR,4356,4708,11481,01.230,551
2023-03-11T15:50:57,42.805,6.029,CST-1368DR,4356,4704,11470,01.234,551
2023-03-11T15:53:59,42.805,6.029,CST-1368DR,4356,4701,11464,01.236,551
2023-03-11T15:57:00,42.805,6.029,CST-1368DR,4356,4704,11470,01.234,551
2023-03-11T16:00:02,42.805,6.029,CST-1368DR,4356,4700,11461,01.237,551
2023-03-11T16:03:04,42.805,6.029,CST-1368DR,4356,4704,11470,01.234,551
2023-03-11T16:06:05,42.805,6.029,CST-1368DR,4356,4707,11479,01.231,551
2023-03-11T16:09:07,42.805,6.029,CST-1368DR,4356,4701,11464,01.236,551
2023-03-11T16:12:08,42.805,6.029,CST-1368DR,4356,4705,11473,01.233,551
2023-03-11T16:15:10,42.805,6.029,CST-1368DR,4356,4705,11472,01.234,551
2023-03-11T16:18:12,42.805,6.029,CST-1368DR,4356,4709,11483,01.230,551
2023-03-11T16:21:13,42.805,6.029,CST-1368DR,4356,4707,11479,01.231,551
2023-03-11T16:24:15,42.805,6.029,CST-1368DR,4356,4707,11478,01.231,551
2023-03-11T16:27:16,42.805,6.029,CST-1368DR,4356,4709,11483,01.230,551
2023-03-11T16:30:18,42.805,6.029,CST-1368DR,4356,4704,11472,01.234,551
2023-03-11T16:33:19,42.805,6.029,CST-1368DR,4356,4705,11474,01.233,551
2023-03-11T16:36:21,42.805,6.029,CST-1368DR,4356,4704,11470,01.234,551